EW6193 Weather Reports


Display with metric or nautical units.
time (UTC)temp
F
wind
direction
speed
MPH
gust
MPH
rain 1hr
in
rain 24hr
in
rain mn
in
humidity
%
barometer
mb
20260502163056 40 241 1.0 2.0 0.00 0.00 0.00 93 1033.7
20260502161559 39 243 0.0 2.0 0.00 0.00 0.00 93 1033.6
20260502151558 41 233 2.0 4.0 0.00 0.00 0.00 92 1033.7
20260502123019 39 58 0.0 0.0 0.00 0.00 0.00 93 1034.1
20260502121521 39 58 0.0 0.0 0.00 0.00 0.00 92 1034.0
20260502114513 39 58 0.0 0.0 0.00 0.00 0.00 92 1034.0
20260502113016 40 58 0.0 0.0 0.00 0.00 0.00 92 1033.9
20260502111507 41 58 0.0 0.0 0.00 0.00 0.00 92 1033.9
20260502110005 41 58 0.0 0.0 0.00 0.00 0.00 92 1033.9
20260502104504 42 58 0.0 0.0 0.00 0.00 0.00 92 1033.8
20260502103002 42 58 0.0 0.0 0.00 0.00 0.00 91 1033.8
20260502101501 43 58 0.0 0.0 0.00 0.00 0.00 92 1033.5
20260502100116 42 58 0.0 0.0 0.00 0.00 0.00 91 1033.4
20260502080105 46 58 0.0 0.0 0.00 0.00 0.00 89 1032.8
20260502070052 52 58 0.0 0.0 0.00 0.00 0.00 88 1032.3
20260502064551 53 58 0.0 1.0 0.00 0.00 0.00 86 1032.1
20260502063057 54 84 0.0 2.0 0.00 0.00 0.00 87 1031.9
20260502061550 54 60 0.0 3.0 0.00 0.00 0.00 86 1031.8
20260502060101 54 32 0.0 3.0 0.00 0.00 0.00 84 1031.5
20260502054549 55 49 0.0 3.0 0.00 0.00 0.00 83 1031.3
20260502053058 56 70 1.0 4.0 0.00 0.00 0.00 81 1031.2
20260502051557 58 70 1.0 4.0 0.00 0.00 0.00 78 1031.0
20260502050054 59 32 1.0 6.0 0.00 0.00 0.00 75 1030.9
20260502044546 61 79 3.0 7.0 0.00 0.00 0.00 72 1030.6
20260502043051 61 43 2.0 8.0 0.00 0.00 0.00 69 1030.6
20260502041545 62 83 3.0 8.0 0.00 0.00 0.00 68 1030.6
20260502040047 63 43 4.0 7.0 0.00 0.00 0.00 65 1030.6
20260502034544 64 77 3.0 6.0 0.00 0.00 0.00 64 1030.4
20260502033046 64 39 3.0 5.0 0.00 0.00 0.00 64 1030.3
20260502031544 64 30 3.0 6.0 0.00 0.00 0.00 63 1030.3
20260502030042 64 50 2.0 6.0 0.00 0.00 0.00 64 1030.3
20260502024540 64 76 3.0 5.0 0.00 0.00 0.00 63 1030.4
20260502023040 65 56 2.0 6.0 0.00 0.00 0.00 63 1030.5
20260502021538 65 117 1.0 5.0 0.00 0.00 0.00 61 1030.6
20260502020037 65 55 3.0 5.0 0.00 0.00 0.00 61 1030.6
20260502014536 66 45 2.0 6.0 0.00 0.00 0.00 61 1030.6
20260502013039 66 84 0.0 2.0 0.00 0.00 0.00 57 1030.7
20260502011554 65 79 2.0 4.0 0.00 0.00 0.00 56 1030.7
20260502010031 65 77 1.0 6.0 0.00 0.00 0.00 55 1030.9
20260502004545 64 38 0.0 4.0 0.00 0.00 0.00 56 1031.0
20260502003028 63 17 0.0 5.0 0.00 0.00 0.00 59 1031.1
20260502001525 63 56 3.0 5.0 0.00 0.00 0.00 59 1031.3
20260502000023 63 39 2.0 4.0 0.00 0.00 0.00 61 1031.4
20260501234521 63 63 0.0 3.0 0.00 0.00 0.00 62 1031.4
20260501233018 62 269 0.0 3.0 0.00 0.00 0.00 63 1031.4
20260501231529 61 267 1.0 5.0 0.00 0.00 0.00 62 1031.5
20260501230011 60 258 0.0 4.0 0.00 0.00 0.00 62 1031.6
20260501224509 59 241 2.0 5.0 0.00 0.00 0.00 63 1031.4
20260501223007 58 250 1.0 4.0 0.00 0.00 0.00 63 1031.4
20260501221503 57 242 0.0 4.0 0.00 0.00 0.00 66 1031.4
20260501220101 55 255 2.0 5.0 0.00 0.00 0.00 66 1031.4
20260501214556 55 238 2.0 4.0 0.00 0.00 0.00 66 1031.5
20260501213052 53 243 1.0 4.0 0.00 0.00 0.00 67 1031.6
20260501211548 52 238 1.0 4.0 0.00 0.00 0.00 70 1031.5
20260501210045 50 248 2.0 4.0 0.00 0.00 0.00 72 1031.5
20260501204540 49 243 0.0 4.0 0.00 0.00 0.00 75 1031.6
20260501203036 47 244 0.0 3.0 0.00 0.00 0.00 80 1031.7
20260501201533 46 248 0.0 2.0 0.00 0.00 0.00 81 1031.7
20260501200030 45 241 0.0 4.0 0.00 0.00 0.00 82 1031.6
20260501194528 43 243 1.0 2.0 0.00 0.00 0.00 86 1031.6
20260501193035 43 240 0.0 2.0 0.00 0.00 0.00 87 1031.5
20260501191532 42 239 0.0 1.0 0.00 0.00 0.00 88 1031.4
20260501190047 42 239 0.0 2.0 0.00 0.00 0.00 87 1031.4
20260501184533 43 243 0.0 2.0 0.00 0.00 0.00 87 1031.3
20260501183023 42 245 1.0 2.0 0.00 0.00 0.00 88 1031.4
20260501181519 42 239 0.0 2.0 0.00 0.00 0.00 88 1031.4
20260501180018 42 239 1.0 2.0 0.00 0.00 0.00 88 1031.4
20260501174517 42 245 0.0 1.0 0.00 0.00 0.00 88 1031.5
20260501173015 42 247 0.0 2.0 0.00 0.00 0.00 88 1031.4
20260501171513 42 247 0.0 2.0 0.00 0.00 0.00 88 1031.4
20260501170011 42 236 0.0 1.0 0.00 0.00 0.00 88 1031.4
20260501164521 43 236 0.0 2.0 0.00 0.00 0.00 88 1031.5